Location: Eastlake (historical)
(39.0077°N, 122.6678°W)
Time: 06:24:19
(UTC+00:00)

SAR-Lupe-1 - Pass Details

Date: 25 November 2020
Orbit: 480 x 485 km, 98.2° (Epoch: 23 January)

Event Time Altitude Azimuth Distance (km) Brightness Sun altitude
Rises 13:28:40 0° 168° (SSE) 2,535 8.0 -18.5°
Reaches altitude 10° 13:30:43 10° 169° (S) 1,661 7.1 -18.1°
Maximum altitude 13:34:17 81° 257° (WSW) 496 3.9 -17.4°
Enters shadow 13:36:53 18° 344° (NNW) 1,258 5.9 -16.9°
